#timestamp,LO_Frequency,Hit,StdDev 
1698505215.4,286047003.3,N
1698505235.2,286047005.6,Y
1698505255.1,286047003.6,P
1698505256.0,286047003.6,P
1698505275.8,286047003.8,P
1698505295.6,286047004.1,Y
1698505315.5,286046998.2,P
1698505335.3,286046998.3,N
1698505355.1,286046998.3,N
1698505375.9,286046998.2,N
1698505395.7,286046998.5,N
1698505415.6,286047000.6,N
1698505435.4,286047000.4,N
1698505485.3,286047002.4,E
1698505495.2,286047000.7,N
1698505515.0,286046998.8,P
1698505515.9,286046998.8,N
1698505535.8,286046998.1,N
1698505555.6,286046998.5,N
1698505575.4,286047001.0,N
1698505595.3,286047000.4,N
1698505615.1,286047000.3,N
1698505635.8,286047000.3,N
1698505655.7,286047000.0,N
1698505675.5,286046999.9,N
1698505695.4,286047000.1,N
1698505715.2,286047002.8,Y
1698505735.0,286047004.3,P
1698505735.9,286047004.3,N
1698505755.8,286047003.5,N
1698505775.6,286047005.1,N
1698505795.5,286047004.5,N
1698505815.3,286047006.6,Y
1698505835.1,286047003.5,P
1698505855.9,286047002.9,P
1698505875.7,286047005.7,P
1698505895.6,286047005.2,Y
1698505915.4,286047002.0,P
1698505935.2,286047004.2,P
1698505955.1,286047004.1,P
1698505956.0,286047004.1,Y
1698505975.8,286047000.6,P
1698505995.6,286046998.5,N
1698506015.5,286047000.7,N
1698506035.3,286047001.0,N
1698506055.2,286046998.6,N
1698506075.9,286047001.2,N
1698506095.7,286047000.4,N
1698506115.6,286047000.3,N
1698506135.4,286047000.0,N
1698506155.2,286047000.1,N
1698506175.1,286047000.1,N
1698506176.0,286047000.1,N
1698506195.8,286047000.1,N
1698506215.7,286047002.4,N
1698506235.5,286047002.5,N
1698506255.3,286047002.2,N
1698506275.2,286047001.6,N
1698506295.9,286047001.6,N
1698506315.7,286047002.0,N
1698506335.6,286047002.0,N
1698506355.4,286047001.8,N
1698506375.3,286047001.3,N
1698506395.1,286047001.6,N
1698506396.0,286047001.6,N
1698506415.8,286047003.9,Y
1698506435.7,286047002.7,P
1698506455.5,286047002.5,N
1698506475.3,286046999.7,N
1698506495.2,286046999.9,N
1698506515.0,286047002.4,N
1698506515.9,286047002.4,N
1698506535.8,286047002.5,N
1698506555.6,286047001.9,N
1698506575.4,286047001.3,N
1698506595.3,286047002.1,N
1698506615.1,286047002.3,N
1698506635.8,286047002.7,N
1698506655.7,286047002.3,N
1698506675.5,286046999.7,N
1698506695.4,286047002.5,N
1698506715.2,286047002.3,N
1698506735.0,286047002.8,N
1698506735.9,286047002.8,N
1698506755.8,286047002.4,N
1698506775.6,286047002.5,N
1698506795.5,286047004.3,Y
1698506815.3,286047002.5,P
1698506835.1,286047002.8,P
1698506855.9,286047002.7,P
1698506875.7,286047002.4,Y
1698506895.6,286047001.2,P
1698506915.4,286047001.1,N
1698506935.2,286047002.0,P
1698506955.1,286046999.7,N
1698506956.0,286046999.7,N
1698506975.8,286046998.1,N
1698506995.6,286046996.6,N
1698507015.5,286046997.0,N
1698507035.3,286046997.0,N
1698507055.2,286046998.6,N
1698507075.9,286047000.4,N
1698507095.7,286047001.0,N
1698507115.6,286047000.8,N
1698507135.4,286046999.4,N
1698507155.3,286046999.5,N
1698507175.1,286046997.3,N
1698507176.0,286046997.3,N
1698507195.8,286046996.6,N
1698507215.7,286046996.6,N
1698507235.5,286046996.7,N
1698507255.3,286046996.5,N
1698507275.2,286046999.1,N
1698507295.0,286046996.6,N
1698507295.9,286046996.6,N
1698507315.8,286046996.9,N
1698507335.6,286046996.6,N
1698507355.4,286046999.6,N
1698507375.3,286046998.8,N
1698507395.1,286047001.2,N
1698507415.8,286046998.6,N
1698507435.7,286046998.4,N
1698507455.5,286046998.3,N
1698507475.4,286046999.4,N
1698507495.2,286046999.3,N
1698507515.0,286046996.5,N
1698507515.9,286046996.5,N
1698507535.8,286046999.1,N
1698507555.6,286046999.2,N
1698507575.4,286046999.5,N
1698507595.3,286046999.2,N
1698507615.1,286046999.6,N
1698507635.9,286047001.1,N
1698507655.7,286046998.3,N
1698507675.5,286047001.2,N
1698507695.4,286047001.0,N
1698507715.2,286047000.9,N
1698507735.0,286047000.4,N
1698507735.9,286047000.4,N
1698507755.8,286047002.3,N
1698507775.6,286047002.5,N
1698507795.5,286047000.7,N
1698507815.3,286047000.7,N
1698507835.1,286047000.6,N
1698507855.9,286047000.5,N
1698507875.7,286047000.3,N
1698507895.5,286047002.1,N
1698507915.4,286047002.8,N
1698507935.2,286046999.9,N
1698507955.1,286047000.8,N
1698507956.0,286047000.8,N
1698507975.8,286046998.7,N
1698507995.6,286046998.4,N
1698508015.5,286046998.3,N
1698508035.3,286046999.4,N
1698508055.1,286046999.3,N
1698508075.9,286046999.6,N
1698508095.7,286046999.1,N
1698508115.6,286046999.0,N
1698508135.4,286046998.3,N
1698508155.2,286046999.0,N
1698508175.1,286046999.4,N
1698508176.0,286046999.4,N
1698508195.8,286046998.8,N
1698508215.6,286046999.6,N
1698508235.5,286046999.6,N
1698508255.3,286046998.7,N
1698508275.2,286046998.5,N
1698508295.9,286047001.2,N
1698508315.7,286047000.3,N
1698508335.6,286047000.4,N
1698508355.4,286047000.8,N
1698508375.2,286047000.5,N
1698508395.1,286047002.3,N
1698508396.0,286047002.3,N
1698508415.8,286046999.8,N
1698508435.7,286047001.0,N
1698508455.5,286047000.7,N
1698508475.3,286046998.5,N
1698508495.2,286046998.6,N
1698508515.0,286046999.3,N
1698508515.9,286046999.3,N
1698508535.8,286046999.1,N
1698508555.6,286046999.5,N
1698508575.4,286046999.0,N
1698508595.3,286046999.1,N
1698508615.1,286046998.8,N
1698508635.8,286046998.6,N
1698508655.7,286046998.2,N
1698508675.5,286046999.4,N
1698508695.4,286046998.3,N
1698508715.2,286046998.5,N
1698508735.0,286047001.2,N
1698508735.9,286047001.2,N
1698508755.8,286046998.1,N
1698508775.6,286047001.1,N
1698508795.4,286046998.5,N
